Lady Goodgirl — 9H8679 — position and weather

sailwx.info

Track history (hours):
 
Tides and Currents Weather Stations Pressure Air Temp Water Temp Dewpoint Dewpoint Depression Visibility Wind Speed Wind Dir Waves Ship Positions

Lady Goodgirl

Last reported at 2014-Jul-30 13:31 UTC. Time now 2014-Jul-30 21:24 UTC.
Position N 35°54' E 014°30'.

Length 38 m; draft 3 m.

Type: Pleasure craft. MMSI: 256670000.

Date/timePositionNaut miles runAvg speedWind from/ knotsBaromVisibWave heightAir tempDewpointWater temp
2014-Jul-30 13:31N 35°54' E 014°30'0 0.0
2014-Jul-30 12:28N 35°54' E 014°30'0 0.0
2014-Jul-30 11:31N 35°54' E 014°30'0 0.0
2014-Jul-30 10:31N 35°54' E 014°30'0 0.0
2014-Jul-30 08:22N 35°54' E 014°30'0 0.0
2014-Jul-30 05:22N 35°54' E 014°30'0 0.0
2014-Jul-30 01:10N 35°54' E 014°30'0 0.0
2014-Jul-30 00:25N 35°54' E 014°30'0 0.0
2014-Jul-29 23:19N 35°54' E 014°30'0 0.0
2014-Jul-29 22:31N 35°54' E 014°30'0 0.0
2014-Jul-29 21:28N 35°54' E 014°30'0 0.0
2014-Jul-29 20:31N 35°54' E 014°30'0 0.0
2014-Jul-29 19:25N 35°54' E 014°30'0 0.0
2014-Jul-29 18:28N 35°54' E 014°30'0 0.0
2014-Jul-29 17:25N 35°54' E 014°30'0 0.0
2014-Jul-29 16:31N 35°54' E 014°30'0 0.0
2014-Jul-29 15:31N 35°54' E 014°30'0 0.0
2014-Jul-29 14:31N 35°54' E 014°30'0 0.0
2014-Jul-29 13:28N 35°54' E 014°30'0 0.0
2014-Jul-29 12:28N 35°54' E 014°30'0 0.0
2014-Jul-29 11:21N 35°54' E 014°30'0 0.0
2014-Jul-29 10:27N 35°54' E 014°30'0 0.0
2014-Jul-29 09:27N 35°54' E 014°30'0 0.0
2014-Jul-29 07:24N 35°54' E 014°30'0 0.0
2014-Jul-29 06:33N 35°54' E 014°30'0 0.0
2014-Jul-29 02:09N 35°54' E 014°30'0 0.0
2014-Jul-28 23:33N 35°54' E 014°30'0 0.0
2014-Jul-28 19:33N 35°54' E 014°30'0 0.0
2014-Jul-28 18:30N 35°54' E 014°30'0 0.0
2014-Jul-28 17:33N 35°54' E 014°30'0 0.0
2014-Jul-28 16:33N 35°54' E 014°30'0 0.0
2014-Jul-28 15:33N 35°54' E 014°30'0 0.0
2014-Jul-28 14:30N 35°54' E 014°30'0 0.0
2014-Jul-28 13:30N 35°54' E 014°30'0 0.0
2014-Jul-28 12:33N 35°54' E 014°30'0 0.0
2014-Jul-28 11:33N 35°54' E 014°30'0 0.0
2014-Jul-28 10:27N 35°54' E 014°30'0 0.0
2014-Jul-28 09:33N 35°54' E 014°30'0 0.0
2014-Jul-28 08:27N 35°54' E 014°30'0 0.0
2014-Jul-28 07:33N 35°54' E 014°30'0 0.0
2014-Jul-28 06:15N 35°54' E 014°30'2 2.7
2014-Jul-28 05:33N 35°56' E 014°30'5 4.0
2014-Jul-28 04:23N 35°57' E 014°24'0 0.0
2014-Jul-28 03:32N 35°57' E 014°24'0 0.0
2014-Jul-28 02:29N 35°57' E 014°24'0 0.0
2014-Jul-28 01:32N 35°57' E 014°24'0 0.0
2014-Jul-28 00:32N 35°57' E 014°24'0 0.0
2014-Jul-27 23:32N 35°57' E 014°24'0 0.0
2014-Jul-27 22:32N 35°57' E 014°24'0 0.0
2014-Jul-27 21:32N 35°57' E 014°24'0 0.0
2014-Jul-27 20:32N 35°57' E 014°24'0 0.0
2014-Jul-27 19:32N 35°57' E 014°24'6 6.4
2014-Jul-27 18:33N 36°03' E 014°21'1312.6
2014-Jul-27 17:33N 36°11' E 014°09'1212.3
2014-Jul-27 16:33N 36°21' E 013°59'1212.4
2014-Jul-27 15:33N 36°30' E 013°49'1312.6
2014-Jul-27 14:33N 36°39' E 013°38'1312.6
2014-Jul-27 13:33N 36°48' E 013°27'1312.7
2014-Jul-27 12:33N 36°57' E 013°16'370 9.0
2014-Jul-25 19:24N 41°50' E 008°23'8410.3
2014-Jul-25 11:10N 42°54' E 007°09'910.6
2014-Jul-25 10:22N 43°00' E 007°02'911.0
2014-Jul-25 09:33N 43°07' E 006°53'1111.1
2014-Jul-25 08:33N 43°16' E 006°44'3 2.7
2014-Jul-25 07:29N 43°16' E 006°40'0 0.0
2014-Jul-25 06:29N 43°16' E 006°40'0 0.0
2014-Jul-25 05:32N 43°16' E 006°40'0 0.0
2014-Jul-25 04:32N 43°16' E 006°40'0 0.0
2014-Jul-25 03:32N 43°16' E 006°40'0 0.0
2014-Jul-25 02:32N 43°16' E 006°40'0 0.0
2014-Jul-25 01:32N 43°16' E 006°40'0 0.0
2014-Jul-25 00:32N 43°16' E 006°40'0 0.0
2014-Jul-24 23:32N 43°16' E 006°40'0 0.0
2014-Jul-24 22:28N 43°16' E 006°40'0 0.0
2014-Jul-24 21:31N 43°16' E 006°40'0 0.0
2014-Jul-24 20:28N 43°16' E 006°40'0 0.0
2014-Jul-24 19:31N 43°16' E 006°40'0 0.0
2014-Jul-24 18:31N 43°16' E 006°40'0 0.0
2014-Jul-24 17:31N 43°16' E 006°40'0 0.0
2014-Jul-24 16:31N 43°16' E 006°40'0 0.0
2014-Jul-24 15:28N 43°16' E 006°40'0 0.0
2014-Jul-24 14:25N 43°16' E 006°40'0 0.0
2014-Jul-24 13:31N 43°16' E 006°40'0 0.0
2014-Jul-24 12:28N 43°16' E 006°40'0 0.0
2014-Jul-24 11:31N 43°16' E 006°40'0 0.0
2014-Jul-24 10:28N 43°16' E 006°40'0 0.0
2014-Jul-24 09:31N 43°16' E 006°40'0 0.0
2014-Jul-24 08:31N 43°16' E 006°40'0 0.0
2014-Jul-24 07:25N 43°16' E 006°40'0 0.0
2014-Jul-24 06:31N 43°16' E 006°40'0 0.0
2014-Jul-24 05:31N 43°16' E 006°40'0 0.0
2014-Jul-24 04:31N 43°16' E 006°40'0 0.0
2014-Jul-24 03:25N 43°16' E 006°40'0 0.0
2014-Jul-24 01:31N 43°16' E 006°40'0 0.0
2014-Jul-24 00:28N 43°16' E 006°40'0 0.0
2014-Jul-23 23:31N 43°16' E 006°40'0 0.0
2014-Jul-23 22:28N 43°16' E 006°40'0 0.0
2014-Jul-23 21:28N 43°16' E 006°40'0 0.0
2014-Jul-23 20:28N 43°16' E 006°40'0 0.0
2014-Jul-23 19:31N 43°16' E 006°40'0 0.0
2014-Jul-23 18:31N 43°16' E 006°40'0 0.0
2014-Jul-23 17:31N 43°16' E 006°40'0 0.0
2014-Jul-23 16:31N 43°16' E 006°40'0 0.0
2014-Jul-23 15:31N 43°16' E 006°40'0 0.0
2014-Jul-23 14:31N 43°16' E 006°40'0 0.0
2014-Jul-23 13:28N 43°16' E 006°40'0 0.0
2014-Jul-23 12:34N 43°16' E 006°40'0 0.0
2014-Jul-23 11:34N 43°16' E 006°40'0 0.0
2014-Jul-23 10:30N 43°16' E 006°40'0 0.0
2014-Jul-23 09:33N 43°16' E 006°40'0 0.0
2014-Jul-23 08:30N 43°16' E 006°40'0 0.0
2014-Jul-23 07:30N 43°16' E 006°40'0 0.0
2014-Jul-23 06:33N 43°16' E 006°40'0 0.0
2014-Jul-23 05:33N 43°16' E 006°40'0 0.0
2014-Jul-23 04:33N 43°16' E 006°40'0 0.0
2014-Jul-23 03:33N 43°16' E 006°40'0 0.0
2014-Jul-23 02:21N 43°16' E 006°40'0 0.0
2014-Jul-23 01:33N 43°16' E 006°40'0 0.0
2014-Jul-23 00:33N 43°16' E 006°40'0 0.0
2014-Jul-22 23:30N 43°16' E 006°40'0 0.0
2014-Jul-22 22:33N 43°16' E 006°40'0 0.0
2014-Jul-22 21:33N 43°16' E 006°40'0 0.0
2014-Jul-22 20:33N 43°16' E 006°40'0 0.0
2014-Jul-22 19:30N 43°16' E 006°40'0 0.0
2014-Jul-22 18:33N 43°16' E 006°40'0 0.2
2014-Jul-22 17:33N 43°17' E 006°40'7 6.5
2014-Jul-22 16:33N 43°10' E 006°39'1 0.7
2014-Jul-22 15:16N 43°10' E 006°38'1 0.2
2014-Jul-22 12:09N 43°10' E 006°39'610.6
2014-Jul-22 11:33N 43°15' E 006°43'2 2.1
2014-Jul-22 10:28N 43°16' E 006°40'0 0.0
2014-Jul-22 09:31N 43°16' E 006°40'0 0.0
2014-Jul-22 08:31N 43°16' E 006°40'0 0.0
2014-Jul-22 07:28N 43°16' E 006°40'0 0.0
2014-Jul-22 06:28N 43°16' E 006°40'0 0.0
2014-Jul-22 05:31N 43°16' E 006°40'0 0.0
2014-Jul-22 04:31N 43°16' E 006°40'0 0.0
2014-Jul-22 03:28N 43°16' E 006°40'0 0.0
2014-Jul-22 02:28N 43°16' E 006°40'0 0.0
2014-Jul-22 01:28N 43°16' E 006°40'0 0.0
2014-Jul-22 00:28N 43°16' E 006°40'0 0.0
2014-Jul-21 23:28N 43°16' E 006°40'0 0.0
2014-Jul-21 22:28N 43°16' E 006°40'0 0.0
2014-Jul-21 21:28N 43°16' E 006°40'0 0.0
2014-Jul-21 20:28N 43°16' E 006°40'0 0.1
2014-Jul-21 20:16N 43°16' E 006°40'0 0.0
2014-Jul-21 19:31N 43°16' E 006°40'0 0.0
2014-Jul-21 18:16N 43°16' E 006°40'0 0.0
2014-Jul-21 17:28N 43°16' E 006°40'0 0.0
2014-Jul-21 16:31N 43°16' E 006°40'0 0.4
2014-Jul-21 15:29N 43°16' E 006°39'0 0.1
2014-Jul-21 14:29N 43°16' E 006°39'0 0.0
2014-Jul-21 13:29N 43°16' E 006°39'0 0.0
2014-Jul-21 12:32N 43°16' E 006°39'0 0.0
2014-Jul-21 11:29N 43°16' E 006°39'0 0.0
2014-Jul-21 10:29N 43°16' E 006°39'0 0.0
2014-Jul-21 09:32N 43°16' E 006°39'0 0.0
2014-Jul-21 08:29N 43°16' E 006°39'0 0.2
2014-Jul-21 07:32N 43°16' E 006°40'0 0.0
2014-Jul-21 06:32N 43°16' E 006°40'0 0.0
2014-Jul-21 05:32N 43°16' E 006°40'0 0.0
2014-Jul-21 04:32N 43°16' E 006°40'0 0.0
2014-Jul-21 03:29N 43°16' E 006°40'0 0.0
2014-Jul-21 02:23N 43°16' E 006°40'0 0.0
2014-Jul-21 01:32N 43°16' E 006°40'0 0.0
2014-Jul-21 00:29N 43°16' E 006°40'0 0.0
2014-Jul-20 23:29N 43°16' E 006°40'0 0.0
2014-Jul-20 22:29N 43°16' E 006°40'0 0.0
2014-Jul-20 21:32N 43°16' E 006°39'0 0.0
2014-Jul-20 20:23N 43°16' E 006°39'0 0.0
2014-Jul-20 19:32N 43°16' E 006°39'0 0.0
2014-Jul-20 18:29N 43°16' E 006°39'1 1.3
2014-Jul-20 17:18N 43°16' E 006°37'0 0.0
2014-Jul-20 16:33N 43°16' E 006°37'0 0.0
2014-Jul-20 15:33N 43°16' E 006°37'0 0.0
2014-Jul-20 14:27N 43°16' E 006°37'0 0.0
2014-Jul-20 13:33N 43°16' E 006°37'  
Track history (hours):
 
Tides and Currents Weather Stations Pressure Air Temp Water Temp Dewpoint Dewpoint Depression Visibility Wind Speed Wind Dir Waves Ship Positions

Lady Goodgirl

Last reported at 2014-Jul-30 13:31 UTC. Time now 2014-Jul-30 21:24 UTC.
Position N 35°54' E 014°30'.

Length 38 m; draft 3 m.

Type: Pleasure craft. MMSI: 256670000.

Date/timePositionNaut miles runAvg speedWind from/ knotsBaromVisibWave heightAir tempDewpointWater temp
2014-Jul-30 13:31N 35°54' E 014°30'0 0.0
2014-Jul-30 12:28N 35°54' E 014°30'0 0.0
2014-Jul-30 11:31N 35°54' E 014°30'0 0.0
2014-Jul-30 10:31N 35°54' E 014°30'0 0.0
2014-Jul-30 08:22N 35°54' E 014°30'0 0.0
2014-Jul-30 05:22N 35°54' E 014°30'0 0.0
2014-Jul-30 01:10N 35°54' E 014°30'0 0.0
2014-Jul-30 00:25N 35°54' E 014°30'0 0.0
2014-Jul-29 23:19N 35°54' E 014°30'0 0.0
2014-Jul-29 22:31N 35°54' E 014°30'0 0.0
2014-Jul-29 21:28N 35°54' E 014°30'0 0.0
2014-Jul-29 20:31N 35°54' E 014°30'0 0.0
2014-Jul-29 19:25N 35°54' E 014°30'0 0.0
2014-Jul-29 18:28N 35°54' E 014°30'0 0.0
2014-Jul-29 17:25N 35°54' E 014°30'0 0.0
2014-Jul-29 16:31N 35°54' E 014°30'0 0.0
2014-Jul-29 15:31N 35°54' E 014°30'0 0.0
2014-Jul-29 14:31N 35°54' E 014°30'0 0.0
2014-Jul-29 13:28N 35°54' E 014°30'0 0.0
2014-Jul-29 12:28N 35°54' E 014°30'0 0.0
2014-Jul-29 11:21N 35°54' E 014°30'0 0.0
2014-Jul-29 10:27N 35°54' E 014°30'0 0.0
2014-Jul-29 09:27N 35°54' E 014°30'0 0.0
2014-Jul-29 07:24N 35°54' E 014°30'0 0.0
2014-Jul-29 06:33N 35°54' E 014°30'0 0.0
2014-Jul-29 02:09N 35°54' E 014°30'0 0.0
2014-Jul-28 23:33N 35°54' E 014°30'0 0.0
2014-Jul-28 19:33N 35°54' E 014°30'0 0.0
2014-Jul-28 18:30N 35°54' E 014°30'0 0.0
2014-Jul-28 17:33N 35°54' E 014°30'0 0.0
2014-Jul-28 16:33N 35°54' E 014°30'0 0.0
2014-Jul-28 15:33N 35°54' E 014°30'0 0.0
2014-Jul-28 14:30N 35°54' E 014°30'0 0.0
2014-Jul-28 13:30N 35°54' E 014°30'0 0.0
2014-Jul-28 12:33N 35°54' E 014°30'0 0.0
2014-Jul-28 11:33N 35°54' E 014°30'0 0.0
2014-Jul-28 10:27N 35°54' E 014°30'0 0.0
2014-Jul-28 09:33N 35°54' E 014°30'0 0.0
2014-Jul-28 08:27N 35°54' E 014°30'0 0.0
2014-Jul-28 07:33N 35°54' E 014°30'0 0.0
2014-Jul-28 06:15N 35°54' E 014°30'2 2.7
2014-Jul-28 05:33N 35°56' E 014°30'5 4.0
2014-Jul-28 04:23N 35°57' E 014°24'0 0.0
2014-Jul-28 03:32N 35°57' E 014°24'0 0.0
2014-Jul-28 02:29N 35°57' E 014°24'0 0.0
2014-Jul-28 01:32N 35°57' E 014°24'0 0.0
2014-Jul-28 00:32N 35°57' E 014°24'0 0.0
2014-Jul-27 23:32N 35°57' E 014°24'0 0.0
2014-Jul-27 22:32N 35°57' E 014°24'0 0.0
2014-Jul-27 21:32N 35°57' E 014°24'0 0.0
2014-Jul-27 20:32N 35°57' E 014°24'0 0.0
2014-Jul-27 19:32N 35°57' E 014°24'6 6.4
2014-Jul-27 18:33N 36°03' E 014°21'1312.6
2014-Jul-27 17:33N 36°11' E 014°09'1212.3
2014-Jul-27 16:33N 36°21' E 013°59'1212.4
2014-Jul-27 15:33N 36°30' E 013°49'1312.6
2014-Jul-27 14:33N 36°39' E 013°38'1312.6
2014-Jul-27 13:33N 36°48' E 013°27'1312.7
2014-Jul-27 12:33N 36°57' E 013°16'370 9.0
2014-Jul-25 19:24N 41°50' E 008°23'8410.3
2014-Jul-25 11:10N 42°54' E 007°09'910.6
2014-Jul-25 10:22N 43°00' E 007°02'911.0
2014-Jul-25 09:33N 43°07' E 006°53'1111.1
2014-Jul-25 08:33N 43°16' E 006°44'3 2.7
2014-Jul-25 07:29N 43°16' E 006°40'0 0.0
2014-Jul-25 06:29N 43°16' E 006°40'0 0.0
2014-Jul-25 05:32N 43°16' E 006°40'0 0.0
2014-Jul-25 04:32N 43°16' E 006°40'0 0.0
2014-Jul-25 03:32N 43°16' E 006°40'0 0.0
2014-Jul-25 02:32N 43°16' E 006°40'0 0.0
2014-Jul-25 01:32N 43°16' E 006°40'0 0.0
2014-Jul-25 00:32N 43°16' E 006°40'0 0.0
2014-Jul-24 23:32N 43°16' E 006°40'0 0.0
2014-Jul-24 22:28N 43°16' E 006°40'0 0.0
2014-Jul-24 21:31N 43°16' E 006°40'0 0.0
2014-Jul-24 20:28N 43°16' E 006°40'0 0.0
2014-Jul-24 19:31N 43°16' E 006°40'0 0.0
2014-Jul-24 18:31N 43°16' E 006°40'0 0.0
2014-Jul-24 17:31N 43°16' E 006°40'0 0.0
2014-Jul-24 16:31N 43°16' E 006°40'0 0.0
2014-Jul-24 15:28N 43°16' E 006°40'0 0.0
2014-Jul-24 14:25N 43°16' E 006°40'0 0.0
2014-Jul-24 13:31N 43°16' E 006°40'0 0.0
2014-Jul-24 12:28N 43°16' E 006°40'0 0.0
2014-Jul-24 11:31N 43°16' E 006°40'0 0.0
2014-Jul-24 10:28N 43°16' E 006°40'0 0.0
2014-Jul-24 09:31N 43°16' E 006°40'0 0.0
2014-Jul-24 08:31N 43°16' E 006°40'0 0.0
2014-Jul-24 07:25N 43°16' E 006°40'0 0.0
2014-Jul-24 06:31N 43°16' E 006°40'0 0.0
2014-Jul-24 05:31N 43°16' E 006°40'0 0.0
2014-Jul-24 04:31N 43°16' E 006°40'0 0.0
2014-Jul-24 03:25N 43°16' E 006°40'0 0.0
2014-Jul-24 01:31N 43°16' E 006°40'0 0.0
2014-Jul-24 00:28N 43°16' E 006°40'0 0.0
2014-Jul-23 23:31N 43°16' E 006°40'0 0.0
2014-Jul-23 22:28N 43°16' E 006°40'0 0.0
2014-Jul-23 21:28N 43°16' E 006°40'0 0.0
2014-Jul-23 20:28N 43°16' E 006°40'0 0.0
2014-Jul-23 19:31N 43°16' E 006°40'0 0.0
2014-Jul-23 18:31N 43°16' E 006°40'0 0.0
2014-Jul-23 17:31N 43°16' E 006°40'0 0.0
2014-Jul-23 16:31N 43°16' E 006°40'0 0.0
2014-Jul-23 15:31N 43°16' E 006°40'0 0.0
2014-Jul-23 14:31N 43°16' E 006°40'0 0.0
2014-Jul-23 13:28N 43°16' E 006°40'0 0.0
2014-Jul-23 12:34N 43°16' E 006°40'0 0.0
2014-Jul-23 11:34N 43°16' E 006°40'0 0.0
2014-Jul-23 10:30N 43°16' E 006°40'0 0.0
2014-Jul-23 09:33N 43°16' E 006°40'0 0.0
2014-Jul-23 08:30N 43°16' E 006°40'0 0.0
2014-Jul-23 07:30N 43°16' E 006°40'0 0.0
2014-Jul-23 06:33N 43°16' E 006°40'0 0.0
2014-Jul-23 05:33N 43°16' E 006°40'0 0.0
2014-Jul-23 04:33N 43°16' E 006°40'0 0.0
2014-Jul-23 03:33N 43°16' E 006°40'0 0.0
2014-Jul-23 02:21N 43°16' E 006°40'0 0.0
2014-Jul-23 01:33N 43°16' E 006°40'0 0.0
2014-Jul-23 00:33N 43°16' E 006°40'0 0.0
2014-Jul-22 23:30N 43°16' E 006°40'0 0.0
2014-Jul-22 22:33N 43°16' E 006°40'0 0.0
2014-Jul-22 21:33N 43°16' E 006°40'0 0.0
2014-Jul-22 20:33N 43°16' E 006°40'0 0.0
2014-Jul-22 19:30N 43°16' E 006°40'0 0.0
2014-Jul-22 18:33N 43°16' E 006°40'0 0.2
2014-Jul-22 17:33N 43°17' E 006°40'7 6.5
2014-Jul-22 16:33N 43°10' E 006°39'1 0.7
2014-Jul-22 15:16N 43°10' E 006°38'1 0.2
2014-Jul-22 12:09N 43°10' E 006°39'610.6
2014-Jul-22 11:33N 43°15' E 006°43'2 2.1
2014-Jul-22 10:28N 43°16' E 006°40'0 0.0
2014-Jul-22 09:31N 43°16' E 006°40'0 0.0
2014-Jul-22 08:31N 43°16' E 006°40'0 0.0
2014-Jul-22 07:28N 43°16' E 006°40'0 0.0
2014-Jul-22 06:28N 43°16' E 006°40'0 0.0
2014-Jul-22 05:31N 43°16' E 006°40'0 0.0
2014-Jul-22 04:31N 43°16' E 006°40'0 0.0
2014-Jul-22 03:28N 43°16' E 006°40'0 0.0
2014-Jul-22 02:28N 43°16' E 006°40'0 0.0
2014-Jul-22 01:28N 43°16' E 006°40'0 0.0
2014-Jul-22 00:28N 43°16' E 006°40'0 0.0
2014-Jul-21 23:28N 43°16' E 006°40'0 0.0
2014-Jul-21 22:28N 43°16' E 006°40'0 0.0
2014-Jul-21 21:28N 43°16' E 006°40'0 0.0
2014-Jul-21 20:28N 43°16' E 006°40'0 0.1
2014-Jul-21 20:16N 43°16' E 006°40'0 0.0
2014-Jul-21 19:31N 43°16' E 006°40'0 0.0
2014-Jul-21 18:16N 43°16' E 006°40'0 0.0
2014-Jul-21 17:28N 43°16' E 006°40'0 0.0
2014-Jul-21 16:31N 43°16' E 006°40'0 0.4
2014-Jul-21 15:29N 43°16' E 006°39'0 0.1
2014-Jul-21 14:29N 43°16' E 006°39'0 0.0
2014-Jul-21 13:29N 43°16' E 006°39'0 0.0
2014-Jul-21 12:32N 43°16' E 006°39'0 0.0
2014-Jul-21 11:29N 43°16' E 006°39'0 0.0
2014-Jul-21 10:29N 43°16' E 006°39'0 0.0
2014-Jul-21 09:32N 43°16' E 006°39'0 0.0
2014-Jul-21 08:29N 43°16' E 006°39'0 0.2
2014-Jul-21 07:32N 43°16' E 006°40'0 0.0
2014-Jul-21 06:32N 43°16' E 006°40'0 0.0
2014-Jul-21 05:32N 43°16' E 006°40'0 0.0
2014-Jul-21 04:32N 43°16' E 006°40'0 0.0
2014-Jul-21 03:29N 43°16' E 006°40'0 0.0
2014-Jul-21 02:23N 43°16' E 006°40'0 0.0
2014-Jul-21 01:32N 43°16' E 006°40'0 0.0
2014-Jul-21 00:29N 43°16' E 006°40'0 0.0
2014-Jul-20 23:29N 43°16' E 006°40'0 0.0
2014-Jul-20 22:29N 43°16' E 006°40'0 0.0
2014-Jul-20 21:32N 43°16' E 006°39'0 0.0
2014-Jul-20 20:23N 43°16' E 006°39'0 0.0
2014-Jul-20 19:32N 43°16' E 006°39'0 0.0
2014-Jul-20 18:29N 43°16' E 006°39'1 1.3
2014-Jul-20 17:18N 43°16' E 006°37'0 0.0
2014-Jul-20 16:33N 43°16' E 006°37'0 0.0
2014-Jul-20 15:33N 43°16' E 006°37'0 0.0
2014-Jul-20 14:27N 43°16' E 006°37'0 0.0
2014-Jul-20 13:33N 43°16' E 006°37'  

Dump ship's entire track history